This is the latest recevied weather packets stored in our database for station/object K4PAD. If no packets are shown the sender has not sent any weather packets the latest 10 day(s).
| Time | Temp. | Humidity | Pressure | Rain* | Wind** | Luminosity | Snow |
|---|---|---|---|---|---|---|---|
| 1778108154 | 33.89° C | 36% | 1015.1 hPa | 0 mm | - | 134 W/m² | - |
| 1778107850 | 33.89° C | 35% | 1015.1 hPa | 0 mm | - | 148 W/m² | - |
| 1778107547 | 33.89° C | 35% | 1015 hPa | 0 mm | - | 170 W/m² | - |
| 1778107243 | 33.89° C | 35% | 1015.2 hPa | 0 mm | - | 175 W/m² | - |
| 1778106940 | 33.89° C | 35% | 1015.4 hPa | 0 mm | - | 200 W/m² | - |
| 1778106636 | 34.44° C | 35% | 1015.1 hPa | 0 mm | - | 231 W/m² | - |
| 1778106333 | 33.89° C | 36% | 1015.2 hPa | 0 mm | - | 262 W/m² | - |
| 1778106030 | 34.44° C | 38% | 1015.2 hPa | 0 mm | - | 296 W/m² | - |
| 1778105727 | 34.44° C | 36% | 1014.9 hPa | 0 mm | - | 309 W/m² | - |
| 1778105425 | 34.44° C | 37% | 1015.1 hPa | 0 mm | - | 338 W/m² | - |
| 1778105121 | 34.44° C | 37% | 1015 hPa | 0 mm | - | 344 W/m² | - |
| 1778104816 | 34.44° C | 37% | 1015.1 hPa | 0 mm | - | 375 W/m² | - |
| 1778104514 | 34.44° C | 37% | 1014.9 hPa | 0 mm | - | 410 W/m² | - |
| 1778104209 | 34.44° C | 37% | 1015.1 hPa | 0 mm | - | 435 W/m² | - |
| 1778103906 | 34.44° C | 36% | 1015.1 hPa | 0 mm | - | 423 W/m² | - |
| 1778103603 | 33.89° C | 37% | 1015.1 hPa | 0 mm | - | 456 W/m² | - |
| 1778103301 | 33.89° C | 37% | 1015.2 hPa | 0 mm | - | 486 W/m² | - |
| 1778102998 | 33.89° C | 37% | 1015 hPa | 0 mm | - | 539 W/m² | - |
| 1778102694 | 34.44° C | 36% | 1015.1 hPa | 0 mm | - | 234 W/m² | - |
| 1778102389 | 34.44° C | 35% | 1015.2 hPa | 0 mm | - | 568 W/m² | - |
| 1778102085 | 34.44° C | 36% | 1015.3 hPa | 0 mm | - | 157 W/m² | - |
| 1778101782 | 34.44° C | 35% | 1015.3 hPa | 0 mm | - | 442 W/m² | - |
| 1778101478 | 34.44° C | 35% | 1015.3 hPa | 0 mm | - | 611 W/m² | - |
| 1778101176 | 33.89° C | 35% | 1015.2 hPa | 0 mm | - | 634 W/m² | - |
| 1778100872 | 33.89° C | 35% | 1015.3 hPa | 0 mm | - | 632 W/m² | - |
* Rain latest hour (hover to see other rain measurements)
** Current wind speed in m/s (hover to see current wind gust speed)